Погода в Темпе

Россия / Саратовская область     52°16′00″N   43°53′14″E
темп.,
°C
ветер,
м/с
пор.,
м/с
влажн.,
%
обл.,
%
осадки,
мм/ч
давл.,
гПа
погр.,
м
14 апреля, ср
ср1401:00+10вюв4116283 0.0 1027168
04:00+8вюв410657 0.0 1026141
07:00+7вюв4116877 0.0 1025165
10:00+14вюв611468 0.0 1024449
13:00+18юв79321 0.0 10231157
16:00+19юв78290 0.0 10211573
19:00+16юв48402 0.0 1020188
22:00+12вюв475588 0.0 1020104
15 апреля, чт
чт1501:00+10вюв4116286 0.0 1019172
04:00+9вюв41168100 0.0 1019151
07:00+8вюв41072100 0.0 1018155
10:00+14вюв6105269 0.0 1017396
13:00+19юв563784 0.0 10161017
16:00+21юв453091 0.0 10151645
19:00+17вюв3448100 0.0 101556
22:00+14в3355100 0.0 101628
16 апреля, пт
пт1601:00+12вюв3459100 0.0 101553
04:00+10вюв3359100 0.0 101625
07:00+10в3564100 0.0 101769
10:00+14в4653100 0.0 1017304
13:00+18в4539100 0.0 10171012
16:00+19в453592 0.0 10172157
19:00+16в365123 0.0 1017121
22:00+12в476481 0.0 1019101
17 апреля, сб
сб1701:00+10всв41180100 0.0 1019220
04:00+9всв41090100 0.0 1020213
07:00+8всв5119059 0.0 1020243
10:00+14в7106212 0.0 1020526
13:00+17в784655 0.0 10201556
16:00+18в773965 0.0 10192324
19:00+15в61153100 0.0 1020439
22:00+10з2285100 1.4 1022121
18 апреля, вс
вс1801:00+10в1283100 0.7 1023171
04:00+7всв61163100 0.8 1023332
07:00+6всв51167100 0.0 1024369
10:00+9в6951100 0.0 1023644
13:00+12в6741100 0.0 10231197
16:00+13всв3742100 0.2 10231663
19:00+12всв4947100 0.0 1023290
22:00+10всв51158100 0.4 1024388